sat.trackr.live / text

‹ back to catalog

ONEWEB-0354

NORAD 49217 · 2021-083AH

PAYLOAD ACTIVE UNKNOWN

§ Identity

Operator
Country
UK
Launch date
2021-09-14
Launch site
TYMSC
Launch vehicle
Mass (kg)
RCS (m²)

Purposes: comms

External: N2YO · Heavens-Above · Gunter

§ Orbital elements

Epoch: 2026-05-25T02:29:15.488736Z

Period
109.03 min
Inclination
87.9176°
Eccentricity
0.0002134
Mean motion
13.20771669 rev/d
Perigee alt
1,180.2 km
Apogee alt
1,183.4 km
Semi-major
7,559.9 km
B*
-1.2957e-5
RAAN
279.0404°
Arg perigee
109.3226°
Mean anomaly
250.8138°
Rev number
23,376

§ Raw data

ONEWEB-03541 49217U 21083AH  26145.10365149  .00000008  00000+0 -12957-4 0  99902 49217  87.9176 279.0404 0002134 109.3226 250.8138 13.20771669233762

JSON: /api/v1/satellites/49217 · /tle

For live sub-satellite position, see the globe view (requires WebGL).

§ Visibility from observer

Set your observer location to see the next 7 days of passes ≥ 10°. The values pass through the URL so the page stays shareable.

No JS? Fill the form by hand. The geolocation button needs JavaScript.